• In Spain
  • List of Countries
  • For 7 days
  • Water Temperature
  • Satellite Maps
  • Weather Map
  • Weather Widgets
  • user-avatar
    Login

    Hourly Weather Zubachiha

    Today, 28 May, Monday

    Time Temperature Precipitation Wind Pressure Humidity
    00:00 +9°C° 0 mm 3 mps 754 mmHg 52%
    01:00 +8°C° 0 mm 3 mps 755 mmHg 54%
    02:00 +7°C° 0 mm 2 mps 755 mmHg 56%
    03:00 +7°C° 0 mm 2 mps 756 mmHg 56%
    04:00 +7°C° 0 mm 2 mps 756 mmHg 56%
    05:00 +8°C° 0 mm 2 mps 757 mmHg 56%
    06:00 +9°C° 0 mm 2 mps 757 mmHg 52%
    07:00 +12°C° 0 mm 2 mps 758 mmHg 47%
    08:00 +14°C° 0 mm 2 mps 758 mmHg 43%
    09:00 +15°C° 0 mm 2 mps 758 mmHg 40%
    10:00 +16°C° 0 mm 2 mps 758 mmHg 37%
    11:00 +17°C° 0 mm 2 mps 758 mmHg 34%
    12:00 +17°C° 0 mm 2 mps 758 mmHg 33%
    13:00 +18°C° 0 mm 2 mps 758 mmHg 33%
    14:00 +19°C° 0 mm 2 mps 758 mmHg 32%
    15:00 +19°C° 0 mm 2 mps 758 mmHg 34%
    16:00 +20°C° 0 mm 1 mps 758 mmHg 36%
    17:00 +19°C° 0 mm 1 mps 757 mmHg 38%
    18:00 +16°C° 0 mm 1 mps 757 mmHg 44%
    19:00 +14°C° 0 mm 1 mps 757 mmHg 51%
    20:00 +12°C° 0 mm 1 mps 757 mmHg 57%
    21:00 +12°C° 0 mm 1 mps 757 mmHg 59%
    22:00 +11°C° 0 mm 1 mps 757 mmHg 60%
    23:00 +9°C° 0 mm 2 mps 758 mmHg 62%

    Tomorrow, 29 May, Tuesday

    Time Temperature Precipitation Wind Pressure Humidity
    00:00 +9°C° 0 mm 2 mps 758 mmHg 64%
    01:00 +8°C° 0 mm 2 mps 758 mmHg 65%
    02:00 +8°C° 0 mm 2 mps 758 mmHg 67%
    03:00 +8°C° 0 mm 2 mps 758 mmHg 67%
    04:00 +9°C° 0 mm 2 mps 757 mmHg 66%
    05:00 +10°C° 0 mm 3 mps 757 mmHg 65%
    06:00 +12°C° 0 mm 3 mps 757 mmHg 59%
    07:00 +14°C° 0 mm 3 mps 757 mmHg 54%
    08:00 +17°C° 0 mm 3 mps 756 mmHg 48%
    09:00 +19°C° 0 mm 3 mps 756 mmHg 44%
    10:00 +20°C° 0 mm 3 mps 755 mmHg 41%
    11:00 +21°C° 0 mm 3 mps 755 mmHg 38%
    12:00 +22°C° 0 mm 4 mps 754 mmHg 37%
    13:00 +22°C° 0 mm 4 mps 753 mmHg 36%
    14:00 +23°C° 0 mm 4 mps 752 mmHg 36%
    15:00 +24°C° 0 mm 3 mps 752 mmHg 39%
    16:00 +24°C° 0 mm 3 mps 751 mmHg 42%
    17:00 +24°C° 0 mm 3 mps 750 mmHg 45%
    18:00 +21°C° 0 mm 3 mps 749 mmHg 53%
    19:00 +19°C° 0 mm 3 mps 749 mmHg 61%
    20:00 +17°C° 0 mm 2 mps 748 mmHg 69%
    21:00 +16°C° 0 mm 3 mps 748 mmHg 73%
    22:00 +16°C° 0 mm 3 mps 747 mmHg 77%
    23:00 +14°C° 0 mm 3 mps 747 mmHg 81%

    Day after tomorrow, 30 May, Wednesday

    Time Temperature Precipitation Wind Pressure Humidity
    00:00 +14°C° 0 mm 3 mps 747 mmHg 82%
    01:00 +13°C° 0 mm 3 mps 746 mmHg 84%
    02:00 +13°C° 0 mm 3 mps 746 mmHg 85%
    03:00 +14°C° 0 mm 4 mps 745 mmHg 81%
    04:00 +14°C° 0 mm 4 mps 745 mmHg 78%
    05:00 +14°C° 0 mm 4 mps 744 mmHg 74%
    06:00 +16°C° 0 mm 5 mps 744 mmHg 65%
    07:00 +19°C° 0 mm 5 mps 743 mmHg 57%
    08:00 +21°C° 0 mm 6 mps 743 mmHg 49%
    09:00 +22°C° 0 mm 6 mps 742 mmHg 46%
    10:00 +23°C° 0 mm 6 mps 742 mmHg 42%
    11:00 +24°C° 0 mm 7 mps 741 mmHg 39%
    12:00 +26°C° 0 mm 7 mps 741 mmHg 39%
    13:00 +26°C° 0 mm 7 mps 741 mmHg 39%
    14:00 +26°C° 0 mm 7 mps 740 mmHg 39%
    15:00 +24°C° 0 mm 6 mps 740 mmHg 43%
    16:00 +22°C° 0 mm 5 mps 740 mmHg 48%
    17:00 +21°C° 0 mm 4 mps 740 mmHg 52%
    18:00 +19°C° 0 mm 3 mps 740 mmHg 53%
    19:00 +17°C° 0 mm 3 mps 741 mmHg 53%
    20:00 +14°C° 0 mm 3 mps 741 mmHg 54%
    21:00 +12°C° 0 mm 3 mps 741 mmHg 58%
    22:00 +12°C° 0 mm 2 mps 742 mmHg 62%
    23:00 +10°C° 0 mm 2 mps 742 mmHg 65%

    31 May, Thursday

    Time Temperature Precipitation Wind Pressure Humidity
    00:00 +9°C° 0 mm 2 mps 743 mmHg 68%
    01:00 +9°C° 0 mm 3 mps 743 mmHg 71%
    02:00 +8°C° 0 mm 3 mps 743 mmHg 73%
    03:00 +8°C° 0 mm 3 mps 744 mmHg 71%
    04:00 +7°C° 0 mm 4 mps 744 mmHg 68%
    05:00 +7°C° 0 mm 4 mps 745 mmHg 65%
    06:00 +8°C° 0 mm 4 mps 745 mmHg 60%
    07:00 +10°C° 0 mm 4 mps 746 mmHg 55%
    08:00 +10°C° 0 mm 4 mps 746 mmHg 50%
    09:00 +11°C° 0 mm 4 mps 747 mmHg 47%
    10:00 +12°C° 0 mm 4 mps 747 mmHg 43%
    11:00 +13°C° 0 mm 4 mps 747 mmHg 40%
    12:00 +13°C° 0 mm 4 mps 747 mmHg 38%
    13:00 +13°C° 0 mm 4 mps 747 mmHg 36%
    14:00 +14°C° 0 mm 4 mps 747 mmHg 34%
    15:00 +13°C° 0 mm 4 mps 748 mmHg 35%
    16:00 +13°C° 0 mm 4 mps 748 mmHg 36%
    17:00 +13°C° 0 mm 4 mps 748 mmHg 37%
    18:00 +11°C° 0 mm 3 mps 748 mmHg 44%
    19:00 +9°C° 0 mm 3 mps 749 mmHg 50%
    20:00 +7°C° 0 mm 2 mps 749 mmHg 57%
    21:00 +6°C° 0 mm 2 mps 750 mmHg 58%
    22:00 +5°C° 0 mm 2 mps 750 mmHg 59%
    23:00 +4°C° 0 mm 2 mps 750 mmHg 60%

    1 June, Friday

    Time Temperature Precipitation Wind Pressure Humidity
    00:00 +4°C° 0 mm 2 mps 751 mmHg 62%
    01:00 +3°C° 0 mm 2 mps 751 mmHg 64%
    02:00 +2°C° 0 mm 2 mps 752 mmHg 66%
    03:00 +2°C° 0 mm 3 mps 752 mmHg 64%
    04:00 +2°C° 0 mm 3 mps 752 mmHg 63%
    05:00 +3°C° 0 mm 3 mps 752 mmHg 62%
    06:00 +4°C° 0 mm 3 mps 753 mmHg 57%
    07:00 +7°C° 0 mm 3 mps 753 mmHg 52%
    08:00 +8°C° 0 mm 3 mps 753 mmHg 47%
    09:00 +9°C° 0 mm 3 mps 753 mmHg 45%
    10:00 +10°C° 0 mm 3 mps 753 mmHg 43%
    11:00 +11°C° 0 mm 3 mps 753 mmHg 41%
    12:00 +11°C° 0 mm 3 mps 753 mmHg 39%
    13:00 +12°C° 0 mm 3 mps 753 mmHg 38%
    14:00 +13°C° 0 mm 3 mps 753 mmHg 37%
    15:00 +13°C° 0 mm 3 mps 752 mmHg 37%
    16:00 +14°C° 0 mm 2 mps 752 mmHg 38%
    17:00 +14°C° 0 mm 2 mps 752 mmHg 38%
    18:00 +12°C° 0 mm 2 mps 752 mmHg 46%
    19:00 +10°C° 0 mm 1 mps 753 mmHg 54%
    20:00 +8°C° 0 mm 1 mps 753 mmHg 61%
    21:00 +7°C° 0 mm 1 mps 753 mmHg 63%
    22:00 +6°C° 0 mm 1 mps 753 mmHg 64%
    23:00 +5°C° 0 mm 1 mps 754 mmHg 66%

    2 June, Saturday

    Time Temperature Precipitation Wind Pressure Humidity
    00:00 +5°C° 0 mm 1 mps 754 mmHg 67%
    01:00 +5°C° 0 mm 1 mps 754 mmHg 68%
    02:00 +4°C° 0 mm 1 mps 754 mmHg 69%
    03:00 +5°C° 0 mm 1 mps 754 mmHg 67%
    04:00 +6°C° 0 mm 1 mps 754 mmHg 65%
    05:00 +7°C° 0 mm 1 mps 754 mmHg 63%
    06:00 +10°C° 0 mm 1 mps 754 mmHg 57%
    07:00 +12°C° 0 mm 1 mps 754 mmHg 50%
    08:00 +15°C° 0 mm 1 mps 754 mmHg 43%
    09:00 +16°C° 0 mm 1 mps 754 mmHg 40%
    10:00 +18°C° 0 mm 1 mps 754 mmHg 37%
    11:00 +20°C° 0 mm 1 mps 754 mmHg 34%
    12:00 +20°C° 0 mm 1 mps 753 mmHg 33%
    13:00 +21°C° 0 mm 1 mps 753 mmHg 33%
    14:00 +21°C° 0 mm 1 mps 752 mmHg 33%
    15:00 +20°C° 0 mm 2 mps 752 mmHg 35%
    16:00 +20°C° 0 mm 2 mps 751 mmHg 37%
    17:00 +19°C° 0 mm 2 mps 751 mmHg 39%
    18:00 +17°C° 0 mm 2 mps 751 mmHg 47%
    19:00 +15°C° 0 mm 2 mps 750 mmHg 55%
    20:00 +13°C° 0 mm 2 mps 750 mmHg 63%
    21:00 +12°C° 0 mm 2 mps 750 mmHg 64%
    22:00 +10°C° 0 mm 2 mps 750 mmHg 66%
    23:00 +9°C° 0 mm 2 mps 750 mmHg 68%
    Show more